SCP
0 0 0 0 0 0 0 0 0 0 0 0 0 0 0 0 0 0 0 0 0 0 0 0 0 0 0 0 0 0 0 0 0 0 0 0 0 0 0 0 0 0 0 0
0 0 0 0 0 0 0 0 0 0 0 0 0 0 0 0 0 0 0 0 0 0 0 0 0 0 0 0 0 0 0 0 0 0 0 0 0 0 0 0 0 0 0 0
0 0 0 0 0 0 0 0 0 0 0 0 0 0 0 0 0 0 0 0 0 0 0 0 0 0 0 0 0 0 0 0 0 0 0 0 0 0 0 0 0 0 0 0
0 0 0 0 0 0 0 0 0 0 0 0 0 0 0 -0 0 0 0 0 0 0 0 0 0 0 0 0 0 0 0 0 0 0 0 0 0 0 0 0 0 0 0 0
0 0 0 0 0 0 0 0 0 0 0 0 -0 -0 0 0 0 0 0 0 0 0 0 0 0 0 0 0 0 0 0 0 0 0 0 0 0 0 0 0 0 0 0 0
-0 -0 0 0 0 0 0 0 0 0 0 0 -0 0 0 0 0 0 0 0 0 0 0 0 0 0 0 0 0 0 0 0 0 0 0 0 0 0 0 0 0 0 0 0
0 0 0 0 0 0 0 0 0 0 0 0 0 0 0 0 0 0 0 0 0 0 0 0 0 0 0 0 0 0 0 0 0 0 0 0 0 0 0 0 0 0 0 0
0 0 0 0 0 0 0 0 0 0 0 0 0 0 0 0 0 0 0 0 0 0 0 0 0 0 0 0 0 0 0 0 0 0 0 0 0 0 0 0 0 0 0 0
0 0 0 0 0 0 0 0 0 0 0 -0 -0 0 0 0 0 0 0 0 0 0 0 0 -0 0 0 0 0 0 0 0 0 0 0 0 0 0 0 0 0 0 0 0
0 0 0 0 0 0 0 0 0 0 -0 -0 -0 0 0 0 0 0 0 0 0 0 0 0 -0 0 0 0 0 0 0 0 0 0 0 0 0 0 0 0 0 0 0 0
0 0 0 0 0 0 0 0 0 0 -0 -0 0 -0 -0 0 0 0 0 0 0 0 0 0 0 0 0 0 0 0 0 0 0 0 0 0 0 0 0 0 0 0 0 0
0 0 0 0 0 0 0 0 0 0 0 0 0 -0 -0 0 0 0 0 0 0 0 0 0 0 0 0 0 0 0 0 0 0 0 0 0 0 0 0 0 0 0 0 0
0 0 0 0 0 0 0 0 0 0 0 0 0 -0 0 0 0 0 0 0 0 0 0 0 0 0 0 0 0 0 0 0 0 0 0 0 0 0 0 0 0 0 0 0
0 0 0 0 0 0 0 0 0 0 0 0 0 0 0 0 0 -0 0 0 0 0 0 0 0 0 0 0 0 0 0 0 0 0 0 0 0 0 0 0 0 0 0 0
0 0 0 0 0 0 0 0 0 0 0 0 0 0 0 0 0 0 0 0 0 0 0 0 0 0 0 0 0 0 0 0 0 0 0 0 0 0 0 0 0 0 0 0
0 0 0 0 0 0 0 0 0 0 0 0 0 0 0 0 0 0 0 0 0 0 0 0 0 0 0 0 0 0 0 0 0 0 0 0 0 0 0 0 0 0 0 0
0 0 0 0 0 0 0 0 0 0 0 0 0 0 0 0 0 0 0 0 0 0 0 0 0 0 0 0 0 0 0 0 0 0 0 0 0 0 0 0 0 0 0 0
0 0 0 0 0 0 0 0 0 0 0 0 0 0 0 0 0 0 0 0 0 0 0 0 0 0 0 0 0 0 0 0 0 0 0 0 0 0 0 0 0 0 0 0
0 0 0 0 0 0 0 0 0 0 0 0 0 0 0 0 0 0 0 0 0 0 0 0 0 0 0 0 0 0 0 0 0 0 0 0 0 0 0 0 0 0 0 0
0 0 0 0 0 0 0 0 0 0 0 0 0 0 0 0 0 0 0 0 0 0 0 0 0 0 0 0 0 0 0 0 0 0 0 0 0 0 0 0 0 0 0 0
0 0 0 0 0 0 0 0 0 0 0 0 0 0 0 0 0 0 0 0 0 0 0 0 0 0 0 0 0 0 0 0 0 0 0 0 0 0 0 0 0 0 0 0
-0 -0 0 0 0 0 0 0 0 0 0 -0 -0 -0 -0 0 0 0 0 0 0 0 0 0 0 0 0 0 0 0 0 0 0 0 0 0 0 0 0 0 0 0 0 0
0 0 -0 -0 -0 -0 0 0 0 0 0 -0 -0 -0 -0 -0 0 0 0 0 0 0 0 0 0 0 0 0 0 0 0 0 0 0 0 0 0 0 0 0 0 0 0 0
0 0 0 0 0 0 0 0 0 0 0 0 -0 -0 -0 -0 -0 0 0 0 0 0 0 0 0 0 0 0 0 0 0 0 0 0 0 0 0 0 0 0 0 0 0 0
0 0 0 0 0 0 0 0 0 0 0 0 0 -0 -0 -0 -0 -0 0 0 0 0 0 0 0 0 0 0 0 0 0 0 0 0 0 0 0 0 0 0 0 0 0 0
0 0 0 0 0 0 0 0 0 0 0 0 0 0 0 0 0 0 0 0 0 0 0 0 0 0 0 0 0 0 0 0 0 0 0 0 0 0 0 0 0 0 0 0
0 0 0 0 0 0 0 0 0 0 0 0 0 0 0 0 0 0 0 0 0 0 0 0 0 0 0 0 0 0 0 0 0 0 0 0 0 0 0 0 0 0 0 0
Wind_Speed
3 3 2 2 3 4 5 6 7 7 6 7 5 5 4 3 1 1 1 1 2 2 2 2 2 1 2 2 2 3 4 4 4 4 3 3 2 3 3 3 3 3 3 2
1 0 1 2 3 3 3 3 4 3 5 5 3 1 1 2 1 2 2 3 3 2 2 3 3 2 2 2 2 3 3 4 3 3 3 3 3 3 3 2 2 3 3 3
2 3 1 3 4 4 3 2 5 5 6 2 2 2 3 3 2 3 3 3 3 3 3 3 3 3 4 4 3 3 3 3 3 3 3 3 3 3 3 3 2 2 3 3
1 1 4 5 1 2 2 1 1 2 2 2 3 3 2 1 2 3 2 3 3 3 2 3 2 2 2 2 3 3 3 3 3 4 3 3 3 3 3 3 3 3 3 3
3 2 5 4 2 1 2 3 1 1 3 2 2 4 4 3 1 2 2 2 2 2 2 1 1 1 2 2 2 3 3 3 3 4 4 3 3 3 3 2 3 3 3 3
4 3 5 4 3 2 2 3 2 1 2 2 2 1 4 4 2 2 2 1 0 0 0 0 1 1 2 2 2 2 3 3 3 3 4 4 4 3 2 2 3 2 2 3
3 4 6 4 4 2 2 5 4 2 2 2 2 3 3 2 3 2 2 2 1 1 1 0 1 2 2 2 2 3 2 2 2 3 4 4 3 2 2 2 2 2 2 2
3 3 6 2 2 3 4 2 2 2 1 1 1 2 2 2 2 3 3 3 2 1 1 1 1 2 1 2 2 1 1 1 1 2 2 2 3 2 2 3 2 2 2 2
6 5 2 1 2 2 1 1 2 1 1 0 1 2 3 2 2 2 2 2 2 1 1 1 1 2 1 2 1 1 1 1 1 1 2 2 3 3 2 2 2 2 2 2
2 3 2 2 1 1 0 1 1 1 0 1 0 1 2 2 2 2 3 2 2 2 2 2 1 0 1 1 1 1 1 1 1 2 2 2 2 3 3 3 3 3 3 3
2 3 2 2 1 1 1 1 2 2 1 1 1 1 1 1 2 2 2 2 2 2 2 2 2 2 1 1 1 1 1 1 1 2 2 2 2 3 4 4 5 5 5 5
5 4 4 4 3 0 0 1 1 1 2 2 0 0 1 1 1 1 2 2 2 2 3 3 2 2 2 1 1 2 1 1 1 1 1 1 1 2 4 4 6 7 6 5
3 1 2 2 1 0 0 0 0 1 0 0 1 1 0 1 2 1 2 2 2 3 3 3 3 3 3 2 1 2 2 2 1 2 2 2 2 2 2 3 4 4 5 5
1 2 0 1 1 1 0 1 1 2 2 1 1 1 1 2 2 2 2 3 2 2 3 3 3 4 4 2 2 2 2 3 2 2 2 2 2 3 3 2 2 3 3 5
1 2 2 1 1 2 2 2 3 3 3 3 2 1 1 1 2 3 3 3 2 3 3 3 4 5 4 2 2 2 2 2 2 2 2 2 2 2 2 3 3 3 2 3
1 2 2 2 1 1 2 2 2 1 2 2 2 2 2 2 2 2 3 2 2 3 4 4 5 5 4 3 2 2 2 4 3 2 2 2 2 2 2 3 3 3 3 3
3 1 0 0 1 1 1 1 1 1 1 1 1 2 2 3 3 4 4 3 3 3 3 3 5 6 4 3 2 2 2 3 4 2 2 2 2 3 3 3 3 3 3 4
4 4 4 4 3 2 1 0 0 0 1 1 1 1 2 2 3 4 4 4 3 4 4 4 5 5 5 4 3 2 2 2 2 2 2 2 3 3 3 3 3 4 3 3
2 2 2 2 2 2 2 1 1 1 1 0 0 1 1 2 3 3 3 3 4 5 6 5 8 5 5 5 4 2 2 2 2 2 2 3 2 2 2 3 3 3 3 2
1 1 1 1 1 2 1 1 0 0 0 0 0 1 2 3 3 3 3 3 3 4 5 6 5 4 5 5 5 2 2 2 2 2 2 2 2 2 3 3 2 3 2 2
1 1 1 1 1 1 1 1 1 1 1 1 1 1 2 3 3 2 2 4 5 5 5 7 4 4 4 5 5 2 2 2 2 2 3 3 3 3 3 3 3 3 3 2
1 1 1 1 1 1 1 1 1 1 1 1 1 1 2 3 3 3 3 4 5 7 5 3 3 5 6 6 3 2 2 2 3 3 3 3 3 3 3 3 3 3 3 3
1 1 2 2 2 1 0 0 1 1 1 2 2 2 3 3 2 2 4 4 4 7 5 4 6 9 9 4 3 3 3 3 3 3 3 3 3 3 3 4 3 3 3 3
1 1 1 1 1 1 1 2 1 1 2 2 3 3 3 2 3 3 4 7 8 8 4 6 9 9 8 3 3 3 3 3 3 3 3 3 3 3 3 3 3 3 3 3
2 2 2 2 1 2 2 2 1 1 2 2 3 3 2 2 3 4 4 4 7 7 4 6 9 9 5 3 3 3 3 3 3 3 2 2 3 3 3 3 3 3 3 3
2 3 3 3 3 2 2 2 2 2 2 2 3 3 2 2 3 3 3 4 5 6 5 4 4 5 4 3 3 3 3 4 4 3 3 3 3 3 3 3 3 3 3 3
1 1 1 1 1 2 2 2 2 3 3 3 3 3 3 3 3 3 4 3 4 4 4 4 3 3 4 4 4 3 3 3 3 3 3 3 3 3 3 3 3 3 3 3
Wind_Direction
223 218 184 222 232 188 188 192 193 227 232 260 270 265 273 276 272 212 222 211 200 210 225 228 224 230 221 213 198 185 177 184 196 196 190 186 182 186 183 183 185 180 177 177
297 330 172 251 265 216 211 200 208 226 252 263 280 306 312 300 263 240 246 242 236 229 230 231 226 227 218 205 192 169 177 191 190 181 181 184 185 180 173 178 178 166 175 179
260 302 18 269 243 201 195 206 184 214 244 278 319 295 260 259 245 237 247 243 232 230 229 230 228 221 210 201 180 166 176 185 181 177 182 185 177 165 175 180 169 173 186 184
143 57 233 244 277 171 182 233 226 232 260 238 248 276 292 262 213 242 259 255 246 240 243 250 240 231 208 175 165 168 178 182 185 180 182 171 162 176 187 175 174 189 197 197
133 199 272 290 291 186 192 266 251 252 298 315 345 13 344 332 290 256 249 257 247 233 231 235 240 211 150 157 162 164 182 191 195 184 176 168 177 194 193 177 186 195 197 197
136 180 236 257 295 283 137 272 309 289 281 303 57 7 286 309 334 340 349 349 321 176 105 125 265 155 139 161 161 191 208 208 199 184 179 182 194 197 189 183 191 190 196 202
162 208 257 275 301 62 144 257 301 274 263 205 196 229 267 323 354 1 1 356 17 68 102 216 187 134 138 166 209 227 220 206 196 190 191 188 189 184 168 169 163 175 206 226
156 195 254 317 92 149 223 285 314 298 284 220 281 335 356 4 8 13 10 9 21 55 23 10 107 131 150 223 240 211 169 197 212 206 200 180 172 177 175 169 171 194 209 253
186 207 240 208 187 236 201 287 292 264 302 191 12 345 346 354 356 360 0 0 5 36 22 12 45 141 178 257 242 151 153 222 226 212 196 179 180 183 182 182 189 209 212 231
210 254 259 270 297 349 337 275 301 314 98 121 76 331 344 344 344 349 353 354 0 26 19 341 325 262 220 255 202 152 175 226 224 208 209 199 194 192 191 196 205 214 218 230
236 262 302 310 288 296 355 21 34 27 34 132 110 352 313 312 319 333 342 346 2 359 323 308 309 303 281 267 177 173 193 209 216 216 211 216 220 219 212 215 211 213 215 212
220 215 194 253 277 241 105 354 19 48 22 3 9 252 332 315 317 329 338 348 350 336 319 310 310 297 292 269 208 193 200 206 207 218 224 215 226 273 258 243 246 242 231 222
214 201 193 262 315 74 160 279 346 36 127 304 328 318 348 330 322 335 338 338 322 309 306 306 309 303 294 275 227 210 214 215 208 218 222 217 213 223 257 287 279 260 249 245
187 117 65 275 273 299 17 15 22 19 9 15 1 4 13 357 343 343 320 304 308 313 312 310 305 299 297 287 242 222 227 229 219 217 221 220 220 226 225 230 260 279 272 258
211 168 191 200 63 48 47 57 55 29 17 12 14 19 14 358 327 315 316 324 334 331 323 321 317 308 308 288 243 227 231 232 223 216 221 223 222 227 230 231 236 250 275 278
127 85 100 104 110 87 72 70 63 8 1 355 354 345 336 333 325 326 327 330 331 317 315 318 311 307 311 298 259 239 241 250 252 230 222 226 222 221 228 230 235 238 242 247
135 139 138 186 205 196 198 203 190 217 311 322 321 337 355 0 353 340 330 322 306 295 299 302 304 310 312 304 271 246 241 247 256 258 235 230 229 229 229 229 234 239 245 243
192 196 198 198 195 197 224 261 205 217 249 281 343 17 14 356 329 319 321 326 328 325 318 310 312 317 312 302 284 261 244 237 236 241 243 240 241 235 233 234 238 245 256 255
185 184 189 186 184 175 179 197 240 252 279 335 18 338 314 310 309 314 324 333 332 322 316 313 321 326 314 304 306 281 258 246 248 249 243 250 254 247 241 239 240 241 246 247
161 163 158 160 146 150 164 175 158 346 300 308 4 346 326 311 308 312 314 303 290 288 298 311 314 310 310 305 302 282 266 255 246 248 248 242 245 250 245 240 240 242 243 240
165 156 147 152 156 165 168 166 162 222 276 257 236 259 279 293 302 306 308 305 303 303 307 313 315 308 306 308 302 291 273 266 257 253 250 248 249 249 246 242 245 247 247 244
181 175 182 170 153 204 237 204 193 204 232 268 289 291 297 301 304 302 286 275 288 308 314 304 302 312 319 318 308 290 272 264 263 257 250 248 247 247 248 246 244 246 248 248
196 200 200 197 191 202 257 245 211 206 226 242 248 256 262 271 272 279 293 294 290 310 317 302 311 319 324 324 315 297 281 270 262 256 253 251 249 247 249 248 244 241 241 244
193 199 208 203 130 124 245 272 269 260 254 258 250 248 253 277 288 276 271 295 309 313 307 305 314 319 323 322 310 300 287 278 270 263 261 259 256 252 251 250 248 246 243 244
190 189 186 174 187 225 237 250 273 278 275 276 276 273 263 247 258 280 288 289 301 312 307 307 315 318 319 305 298 292 287 279 275 271 264 265 264 262 258 252 248 247 246 248
200 201 207 212 214 219 220 220 236 251 256 273 283 280 282 282 278 280 287 293 296 306 305 298 302 310 306 298 293 290 290 294 292 281 272 267 265 264 264 260 254 251 251 251
212 213 214 242 244 220 213 217 230 244 243 246 267 274 276 280 282 286 291 294 295 296 295 295 296 297 298 297 293 292 291 289 285 276 269 266 265 265 266 264 262 258 255 252